Location: Unspecified
(0.0000°N, 0.0000°E)
Time: 08:29:18
(UTC+00:00)

N. Korean satellite - Pass Details

Date: 15 September 2021
Orbit: 448 x 499 km, 97.3° (Epoch: 17 September)

Event Time Altitude Azimuth Distance (km) Brightness Sun altitude
Rises 05:13:37 0° 357° (N) 2,506 10.2 -10.4°
Reaches altitude 10° 05:15:45 10° 349° (N) 1,641 9.2 -9.9°
Maximum altitude 05:19:01 37° 281° (W) 770 7.1 -9.0°
Drops below altitude 10° 05:22:22 10° 212° (SSW) 1,674 9.0 -8.2°
Sets 05:24:33 0° 204° (SSW) 2,565 10.0 -7.7°
